This demonstration page uses our WeatherBlox Daily Observations layout. Learn more.

Left ArrowRight Arrow

Hourly Observations for July 7, 2018

Temp ( °F °C ) Dew Point ( °F °C ) Humidity (%) Winds ( mph kmh ) Pressure ( in mb ) Visibility ( mi km ) Precip ( " mm )
12:53 am 00:53 Clear 72 22.2 67 19.4 84 84 SE 10 17 30.27 1025 10 16 0.00 0.00
1:53 am 01:53 Clear 72 22.2 66 18.9 82 82 SE 10 17 30.24 1024 10 16 0.00 0.00
2:53 am 02:53 Clear 71 21.7 66 18.9 84 84 SSE 7 11 30.24 1024 10 16 0.00 0.00
3:53 am 03:53 Clear 70 21.1 66 18.9 87 87 SSE 8 13 30.23 1024 10 16 0.00 0.00
4:53 am 04:53 Clear 69 20.6 65 18.3 87 87 SSE 9 15 30.22 1023 10 16 0.00 0.00
5:53 am 05:53 Clear 68 20 64 17.8 87 87 SSE 7 11 30.22 1023 10 16 0.00 0.00
6:53 am 06:53 Sunny 68 20 64 17.8 87 87 S 6 9 30.22 1024 10 16 0.00 0.00
7:53 am 07:53 Sunny 70 21.1 64 17.8 82 82 S 7 11 30.22 1024 10 16 0.00 0.00
8:53 am 08:53 Sunny 73 22.8 65 18.3 76 76 S 10 17 30.22 1023 10 16 0.00 0.00
9:53 am 09:53 Sunny 77 25 68 20 74 74 S 9 15 30.22 1023 10 16 0.00 0.00
10:53 am 10:53 Sunny 81 27.2 70 21.1 69 69 S 10 17 30.20 1023 10 16 0.00 0.00
11:53 am 11:53 Mostly Sunny 83 28.3 72 22.2 70 70 SSE 14 22 30.20 1023 10 16 0.00 0.00
12:18 pm 12:18 Mostly Cloudy 84 29 73 23 70 70 S 12 19 30.12 1020 10 16 0.00 0.00
12:48 pm 12:48 Partly Cloudy 84 29 73 23 70 70 S 10 17 30.12 1020 10 16 0.00 0.00
12:53 pm 12:53 Partly Cloudy 84 28.9 71 21.7 65 65 S 13 20 30.19 1022 10 16 0.00 0.00
1:53 pm 13:53 Mostly Sunny 87 30.6 72 22.2 61 61 S 13 20 30.17 1022 10 16 0.00 0.00
2:53 pm 14:53 Sunny 87 30.6 70 21.1 57 57 S 12 19 30.16 1021 10 16 0.00 0.00
3:53 pm 15:53 Mostly Sunny 88 31.1 70 21.1 55 55 S 10 17 30.14 1021 10 16 0.00 0.00
4:53 pm 16:53 Sunny 89 31.7 69 20.6 52 52 S 10 17 30.12 1020 10 16 0.00 0.00
5:53 pm 17:53 Sunny 88 31.1 71 21.7 57 57 SSE 14 22 30.11 1020 10 16 0.00 0.00
6:53 pm 18:53 Sunny 86 30 70 21.1 59 59 SE 15 24 30.09 1019 10 16 0.00 0.00
7:53 pm 19:53 Sunny 85 29.4 70 21.1 61 61 SE 9 15 30.09 1019 10 16 0.00 0.00
8:53 pm 20:53 Sunny 82 27.8 70 21.1 67 67 SE 9 15 30.08 1019 10 16 0.00 0.00
9:53 pm 21:53 Clear 79 26.1 71 21.7 77 77 SE 13 20 30.09 1019 10 16 0.00 0.00
10:53 pm 22:53 Clear 77 25 68 20 74 74 SE 10 17 30.11 1020 10 16 0.00 0.00
11:53 pm 23:53 Clear 75 23.9 66 18.9 74 74 SSE 9 15 30.12 1020 10 16 0.00 0.00

Powered by AerisWeather